Grizzly Air Cargo 5351


PADQ
Kodiak Airport
Kodiak, Alaska, US
PANC
Ted Stevens Anchorage International Airport
Anchorage, Alaska, US

Activity Log

Date Flight Route Aircraft Duration
11/25/2019 GRZ5351 ODK Q49 AMOTT AMOTT4 SF34 1h 09m
10/11/2019 GRZ551 ODK Q49 AMOTT AMOTT4 SF34 1h 02m
10/09/2019 GRZ551 ODK Q49 AMOTT AMOTT4 SF34 1h 13m
10/08/2019 GRZ551 ODK Q49 AMOTT AMOTT4 SF34 0h 54m
09/26/2019 GRZ551 ODK Q49 AMOTT AMOTT4 SF34 1h 28m

Route Details

Aircraft Information
Primary: Saab 340AF
Backup: Not Available
Route Data
Distance: 245nm
Sched. Duration: 1h 19m
Avg. Duration: 1h 01m (-19m)
Times Flown: 5
Recm'd Route: ODK Q49 AMOTT AMOTT4
Planned Altitude: 25,000ft
Origin Wx: PADQ 221753Z 08019G27KT 10SM FEW027 BKN049 OVC100 08/03 A3018 RMK AO2 PK WND 08027/1748 SLP220 60000 T00830033 10083 20072 55002 $
Dest. Wx: PANC 221753Z 35005KT 10SM FEW090 M02/M09 A3044 RMK AO2 SLP311 T10221089 11022 21067 50000 $
Notes:

Financial History
Total Freight: 31,450lbs
Average Load: 6,290lbs/flt
Fuel Used: 8,722lbs
Avg. Fuel Used: 1,744lbs/flt
Fuel Expense: $9,769
Avg. Fuel Expense: $1,954
Avg. Fuel Cost: $1.12/lbs
Total Gross Income: $65,748
Pilot Pay: $1,075
Total Expenses: $7,361
Total Revenue: $47,211
Average Revenue: $13,149.50